Home > Time Zones > World Clock > Weather > India > Surat > Past weeks

Flag for India Weather past 2 weeks in Surat, Gujarat, India

Now
106 °F

Clear.


Feels Like: 103 °F
Forecast: 80 / 93 °F
Wind: 6 mph from West

Location: Ahmadabad Airport

Current Time: Apr 27, 2015 at 7:49:11 PM

Latest Report: Apr 27, 2015 at 6:40 PM


Visibility: 4 mi

Pressure: 29.71 "Hg

Humidity: 17%

Dew point: 52 °F

Location of SuratLocation

Historic Weather in Surat — Graph

°F

Surat temperature yesterday

Maximum temperature yesterday: 109 °F (at 3:10 PM)
Minimum temperature yesterday: 81 °F (at 3:40 AM)
Average temperature yesterday: 93 °F

Past Weeks' High & Low Weather Summary

 TemperatureHumidityPressure
High113 °F (Apr 18, 2:40 PM)79% (Apr 15, 4:40 AM)29.95 "Hg (Apr 15, 4:40 AM)
Low70 °F (Apr 13, 6:10 AM)10% (Apr 22, 3:10 PM)29.56 "Hg (Apr 18, 5:10 PM)
Average93 °F37%29.76 "Hg
* Reported Apr 12 7:10 PM — Apr 27 6:40 PM, Surat, Weather by CustomWeather, © 2015

Note: Actual official high and low records may vary slightly from our data, if they occured in-between our weather recording intervals... More about our weather records

Advertising

Surat weather history for previous 24 hours

 ConditionsComfort  
Time TempWeatherWind HumidityBarometerVisibility
6:40 PM
Mon, Apr 27
106 °FClear.6 mph17%29.71 "Hg4 mi
5:40 PM111 °FClear.9 mph13%29.68 "Hg4 mi
5:10 PM113 °FClear.9 mph13%29.68 "Hg4 mi
4:40 PM113 °FClear.13 mph13%29.71 "Hg4 mi
4:10 PM113 °FClear.12 mph13%29.71 "Hg4 mi
3:40 PM113 °FClear.9 mph15%29.71 "Hg4 mi
3:10 PM111 °FClear.12 mph16%29.71 "Hg4 mi
2:40 PM109 °FClear.9 mph18%29.71 "Hg4 mi
2:10 PM109 °FClear.12 mph17%29.74 "Hg4 mi
1:40 PM108 °FClear.7 mph22%29.74 "Hg4 mi
12:40 PM104 °FDuststorm.9 mph26%29.77 "Hg3 mi
11:40 AM100 °FDuststorm.7 mph29%29.83 "Hg2 mi
11:10 AM99 °FDuststorm.8 mph31%29.83 "Hg2 mi
10:40 AM97 °FClear.7 mph32%29.83 "Hg2 mi
5:40 AM82 °FClear.5 mph55%29.74 "Hg2 mi
5:10 AM84 °FClear.7 mph48%29.74 "Hg2 mi
4:40 AM84 °FClear.6 mph45%29.74 "Hg2 mi
4:10 AM84 °FClear.6 mph43%29.71 "Hg2 mi
3:10 AM86 °FClear.6 mph38%29.71 "Hg2 mi
2:40 AM88 °FClear.8 mph38%29.74 "Hg2 mi
2:10 AM84 °FHaze.5 mph62%29.74 "Hg2 mi
1:40 AM84 °FHaze.6 mph66%29.74 "Hg2 mi
1:10 AM84 °FHaze.6 mph66%29.74 "Hg2 mi
12:40 AM84 °FClear.7 mph66%29.74 "Hg2 mi
12:10 AM88 °FClear.3 mph59%29.74 "Hg2 mi
11:40 PM
Sun, Apr 26
86 °FClear.6 mph62%29.74 "Hg2 mi
11:10 PM88 °FClear.7 mph55%29.74 "Hg2 mi
10:40 PM90 °FClear.12 mph52%29.74 "Hg2 mi
9:40 PM93 °FClear.8 mph56%29.71 "Hg2 mi
8:40 PM95 °FClear.12 mph53%29.71 "Hg2 mi
8:10 PM100 °FClear.6 mph37%29.68 "Hg2 mi
7:40 PM102 °FClear.5 mph31%29.71 "Hg2 mi
Weather by CustomWeather, © 2015

See weather overviewHow to use our weather pages